Massena, NY

3:26 AM EDT on September 19, 2019 (GMT -0400)
Massena International-Richards

Weather History for KMSS - July, 2019

Change the Weather History Date:

Sunday, July 21, 2019

  Actual Average Record
Temperature  
Mean Temperature 79 °F 69 °F  
Max Temperature 88 °F 80 °F 96 °F (1955)
Min Temperature 70 °F 58 °F 46 °F (1989)
Degree Days  
Heating Degree Days 0 1  
Month to date heating degree days 0 21  
Since 1 June heating degree days 97 117  
Since 1 July heating degree days 0 21  
Cooling Degree Days 14 5  
Month to date cooling degree days 166 102  
Year to date cooling degree days 225 191  
Since 1 June cooling degree days 224 177  
Growing Degree Days 30 (Base 50)    
Moisture  
Dew Point 66 °F    
Average Humidity 62    
Maximum Humidity 87    
Minimum Humidity 36    
Precipitation  
Precipitation T in 0.13 in 0.91 in (1954)
Month to date precipitation 1.06 2.37  
Year to date precipitation 15.55 17.82  
Sea Level Pressure  
Sea Level Pressure 29.75 in    
Wind  
Wind Speed 9 mph (West)    
Max Wind Speed 17 mph    
Max Gust Speed 22 mph    
Visibility 10 miles    
Events      
T = Trace of Precipitation, MM = Missing Value Source: NWS Daily Summary

Daily Weather History Graph

Daily Weather History Graph

Search for Another Location

Airport or City:

Astronomy

Jul. 21, 2019 Rise Set
Actual Time 5:32 AM EDT 8:38 PM EDT
Civil Twilight 4:57 AM EDT 9:13 PM EDT
Nautical Twilight 4:12 AM EDT 9:58 PM EDT
Astronomical Twilight 3:17 AM EDT 10:52 PM EDT
Moon 11:20 PM EDT (7/21) 10:00 AM EDT (7/21)
Length of Visible Light 16h 15m
Length of Day
15h 05m
Waning Gibbous, 80% of the Moon is Illuminated
Jul 21
Waning Gibbous
Jul 24
Last Quarter
Jul 31
New
Aug 7
First Quarter
Aug 15
Full

Hourly Weather History & Observations

Time (EDT) Temp. Heat Index Dew Point Humidity Pressure Visibility Wind Dir Wind Speed Gust Speed Precip Events Conditions
12:53 AM 79.0 °F - 72.0 °F 79% 29.68 in 10.0 mi SW 9.2 mph - N/A   Clear
1:53 AM 78.1 °F - 72.0 °F 81% 29.68 in 10.0 mi SW 9.2 mph - N/A   Clear
2:53 AM 78.1 °F - 71.1 °F 79% 29.67 in 10.0 mi SW 10.4 mph - N/A   Clear
3:53 AM 77.0 °F - 70.0 °F 79% 29.66 in 10.0 mi SW 10.4 mph - N/A   Clear
4:53 AM 77.0 °F - 70.0 °F 79% 29.67 in 10.0 mi SW 10.4 mph - N/A   Partly Cloudy
5:53 AM 75.9 °F - 71.1 °F 85% 29.70 in 10.0 mi SW 11.5 mph - 0.00 in   Overcast
6:53 AM 77.0 °F - 70.0 °F 79% 29.70 in 10.0 mi WSW 9.2 mph - N/A   Overcast
7:21 AM 77.0 °F - 71.1 °F 82% 29.72 in 10.0 mi WSW 6.9 mph - N/A   Overcast
7:53 AM 78.1 °F - 71.1 °F 79% 29.71 in 10.0 mi SW 9.2 mph - N/A   Scattered Clouds
8:20 AM 78.1 °F - 70.0 °F 76% 29.72 in 10.0 mi WSW 9.2 mph - N/A   Mostly Cloudy
8:53 AM 79.0 °F - 69.1 °F 72% 29.73 in 10.0 mi West 10.4 mph - N/A   Overcast
9:48 AM 80.6 °F 83.9 °F 69.8 °F 70% 29.74 in 10.0 mi West 11.5 mph - N/A   Mostly Cloudy
9:53 AM 81.0 °F 84.4 °F 70.0 °F 69% 29.73 in 10.0 mi WSW 11.5 mph - N/A   Mostly Cloudy
10:53 AM 82.0 °F 85.5 °F 69.1 °F 65% 29.74 in 10.0 mi West 10.4 mph 18.4 mph N/A   Partly Cloudy
11:53 AM 84.0 °F 86.5 °F 66.9 °F 56% 29.75 in 10.0 mi West 11.5 mph - N/A   Scattered Clouds
12:53 PM 84.0 °F 86.3 °F 66.0 °F 55% 29.75 in 10.0 mi West 11.5 mph - N/A   Scattered Clouds
1:53 PM 82.9 °F 85.4 °F 66.9 °F 58% 29.75 in 10.0 mi West 8.1 mph - 0.00 in   Mostly Cloudy
2:53 PM 84.9 °F 85.4 °F 62.1 °F 46% 29.75 in 10.0 mi WNW 15.0 mph 19.6 mph N/A   Scattered Clouds
3:53 PM 87.1 °F 85.9 °F 57.0 °F 36% 29.76 in 10.0 mi WNW 15.0 mph 23.0 mph N/A   Clear
4:53 PM 84.9 °F 84.4 °F 59.0 °F 41% 29.77 in 10.0 mi WNW 15.0 mph 20.7 mph N/A   Clear
5:53 PM 84.9 °F 85.9 °F 63.0 °F 48% 29.78 in 10.0 mi NNW 10.4 mph - N/A   Clear
6:53 PM 82.0 °F 83.0 °F 62.1 °F 51% 29.80 in 10.0 mi NNW 8.1 mph - N/A   Partly Cloudy
7:53 PM 80.1 °F 80.9 °F 60.1 °F 50% 29.82 in 10.0 mi NW 3.5 mph - N/A   Mostly Cloudy
8:53 PM 75.9 °F - 60.1 °F 58% 29.84 in 10.0 mi Calm Calm - N/A   Mostly Cloudy
9:53 PM 73.0 °F - 63.0 °F 71% 29.87 in 10.0 mi NW 4.6 mph - N/A   Overcast
10:53 PM 73.9 °F - 57.9 °F 57% 29.88 in 10.0 mi North 4.6 mph - N/A   Overcast
11:53 PM 72.0 °F - 55.9 °F 57% 29.88 in 10.0 mi North 8.1 mph - N/A   Mostly Cloudy